Total_Precipitation_Accumulation
1.24 1.46 1.73 2.19 2.69 3.30 3.99 4.08 3.54 2.93 2.43 2.00 1.67 1.36 1.12 1.01 0.95 0.81 0.73 0.71 0.73 0.75 0.83 0.72 0.80 0.95 0.95 0.92 0.98 1.04 0.97 0.81 0.98 1.04 0.76 0.60 0.56 0.58 0.54 0.51 0.51 0.47 0.53
1.33 1.65 1.98 2.31 2.64 3.06 3.51 3.42 2.88 2.28 1.69 1.30 1.14 0.98 0.81 0.69 0.58 0.52 0.54 0.50 0.56 0.63 0.72 0.67 0.58 0.63 0.66 0.61 0.65 0.82 0.84 0.74 0.87 0.96 0.84 0.61 0.56 0.50 0.38 0.42 0.42 0.42 0.52
1.16 1.75 2.23 2.46 2.60 2.66 2.51 2.32 1.85 1.28 0.97 0.73 0.64 0.55 0.52 0.49 0.39 0.34 0.35 0.33 0.35 0.39 0.47 0.50 0.50 0.55 0.62 0.61 0.61 0.65 0.69 0.63 0.64 0.79 0.90 0.71 0.50 0.42 0.38 0.39 0.39 0.45 0.58
0.97 1.68 1.97 1.98 1.94 1.88 1.54 1.27 1.07 0.76 0.57 0.48 0.46 0.44 0.38 0.38 0.32 0.27 0.26 0.24 0.24 0.27 0.30 0.34 0.34 0.41 0.52 0.59 0.55 0.55 0.58 0.57 0.50 0.56 0.65 0.66 0.61 0.54 0.42 0.40 0.44 0.48 0.59
0.68 1.00 1.05 1.14 1.14 1.06 0.92 0.82 0.81 0.65 0.56 0.51 0.50 0.49 0.34 0.28 0.25 0.23 0.21 0.21 0.24 0.26 0.27 0.28 0.29 0.32 0.36 0.40 0.43 0.49 0.52 0.54 0.50 0.49 0.56 0.63 0.66 0.65 0.57 0.47 0.46 0.44 0.41
0.44 0.59 0.59 0.59 0.57 0.51 0.55 0.57 0.69 0.71 0.58 0.46 0.40 0.38 0.33 0.27 0.23 0.19 0.20 0.20 0.22 0.26 0.29 0.30 0.31 0.33 0.33 0.34 0.37 0.40 0.44 0.50 0.54 0.53 0.56 0.65 0.70 0.66 0.65 0.57 0.50 0.47 0.42
0.40 0.47 0.56 0.55 0.44 0.36 0.39 0.42 0.43 0.43 0.40 0.37 0.35 0.33 0.32 0.28 0.24 0.22 0.17 0.17 0.20 0.23 0.27 0.32 0.34 0.37 0.37 0.37 0.38 0.39 0.41 0.48 0.56 0.56 0.55 0.57 0.63 0.69 0.71 0.65 0.57 0.59 0.59
0.28 0.29 0.34 0.34 0.29 0.24 0.21 0.22 0.25 0.23 0.22 0.22 0.24 0.25 0.26 0.23 0.21 0.24 0.20 0.18 0.20 0.24 0.28 0.29 0.30 0.34 0.36 0.38 0.40 0.37 0.37 0.47 0.56 0.61 0.69 0.66 0.59 0.74 0.82 0.78 0.77 0.74 0.78
0.11 0.12 0.11 0.11 0.13 0.13 0.13 0.16 0.17 0.17 0.16 0.16 0.19 0.18 0.20 0.21 0.21 0.22 0.20 0.19 0.25 0.26 0.28 0.29 0.31 0.32 0.35 0.38 0.40 0.41 0.45 0.52 0.56 0.64 0.78 0.84 0.79 0.78 0.84 0.89 0.94 0.98 0.95
0.04 0.05 0.06 0.05 0.05 0.04 0.07 0.12 0.15 0.18 0.20 0.20 0.18 0.15 0.15 0.17 0.19 0.17 0.19 0.22 0.22 0.23 0.28 0.34 0.36 0.35 0.37 0.44 0.51 0.50 0.51 0.59 0.68 0.81 0.90 0.94 0.96 0.95 0.88 0.91 0.96 0.98 1.04
0.02 0.02 0.02 0.02 0.02 0.03 0.05 0.08 0.10 0.15 0.16 0.15 0.15 0.16 0.15 0.16 0.18 0.21 0.21 0.22 0.21 0.23 0.26 0.32 0.36 0.38 0.45 0.63 0.80 0.79 0.71 0.76 0.85 0.95 1.05 1.10 1.15 1.14 1.02 0.97 0.94 0.95 1.03
0.02 0.01 0.01 0.01 0.02 0.03 0.03 0.06 0.08 0.08 0.08 0.09 0.09 0.11 0.15 0.17 0.18 0.21 0.23 0.24 0.24 0.21 0.20 0.23 0.28 0.31 0.37 0.53 0.85 1.02 1.04 1.01 0.94 1.00 1.18 1.27 1.23 1.12 1.04 1.03 0.98 0.97 1.06
0.04 0.03 0.02 0.02 0.02 0.04 0.06 0.06 0.08 0.08 0.08 0.09 0.09 0.10 0.13 0.16 0.20 0.22 0.23 0.22 0.23 0.23 0.22 0.24 0.29 0.33 0.34 0.40 0.60 0.83 0.96 0.98 0.95 1.01 1.06 1.09 1.15 1.12 1.04 0.98 0.95 0.94 1.04
0.06 0.05 0.04 0.03 0.03 0.04 0.06 0.08 0.09 0.10 0.10 0.10 0.12 0.14 0.15 0.17 0.19 0.20 0.21 0.22 0.24 0.24 0.26 0.29 0.32 0.34 0.31 0.32 0.44 0.60 0.71 0.77 0.82 0.87 0.91 0.93 0.97 1.03 1.09 1.03 0.97 0.99 1.01
0.07 0.05 0.04 0.04 0.03 0.04 0.06 0.07 0.09 0.09 0.09 0.10 0.11 0.12 0.14 0.17 0.17 0.18 0.21 0.24 0.25 0.26 0.30 0.34 0.35 0.33 0.30 0.33 0.44 0.49 0.46 0.51 0.57 0.60 0.61 0.72 0.87 0.96 1.02 0.97 0.95 1.00 1.00
0.08 0.08 0.10 0.08 0.06 0.06 0.06 0.07 0.09 0.12 0.13 0.16 0.18 0.15 0.17 0.19 0.18 0.19 0.21 0.25 0.28 0.32 0.35 0.36 0.41 0.39 0.30 0.32 0.36 0.33 0.30 0.34 0.39 0.42 0.41 0.42 0.53 0.70 0.83 0.85 0.85 0.91 0.96
0.15 0.16 0.19 0.14 0.11 0.09 0.10 0.11 0.13 0.14 0.17 0.19 0.24 0.24 0.25 0.26 0.25 0.25 0.30 0.33 0.36 0.41 0.45 0.43 0.43 0.41 0.38 0.31 0.25 0.21 0.22 0.25 0.32 0.36 0.36 0.29 0.28 0.42 0.57 0.68 0.72 0.73 0.73
0.14 0.13 0.13 0.15 0.19 0.19 0.17 0.18 0.22 0.27 0.34 0.36 0.41 0.47 0.50 0.49 0.49 0.52 0.52 0.52 0.53 0.52 0.51 0.50 0.51 0.55 0.50 0.37 0.26 0.20 0.18 0.22 0.29 0.33 0.33 0.33 0.33 0.36 0.43 0.54 0.63 0.67 0.64
0.11 0.11 0.13 0.15 0.20 0.27 0.27 0.25 0.26 0.31 0.41 0.51 0.57 0.64 0.69 0.70 0.70 0.70 0.69 0.71 0.74 0.71 0.67 0.65 0.65 0.68 0.69 0.56 0.38 0.29 0.25 0.29 0.31 0.35 0.36 0.36 0.34 0.32 0.29 0.37 0.44 0.50 0.59
0.08 0.10 0.12 0.14 0.19 0.25 0.27 0.28 0.32 0.35 0.38 0.41 0.50 0.62 0.76 0.83 0.80 0.77 0.80 0.85 0.91 0.88 0.87 0.86 0.85 0.84 0.88 0.75 0.49 0.40 0.38 0.43 0.44 0.49 0.48 0.38 0.31 0.26 0.21 0.29 0.38 0.41 0.44
0.07 0.09 0.10 0.13 0.17 0.22 0.29 0.39 0.45 0.45 0.44 0.45 0.49 0.55 0.66 0.77 0.77 0.79 0.84 0.89 0.92 0.93 0.94 0.90 0.83 0.84 0.88 0.79 0.56 0.47 0.47 0.53 0.59 0.54 0.52 0.49 0.34 0.24 0.19 0.21 0.31 0.34 0.41
0.09 0.11 0.12 0.14 0.17 0.23 0.32 0.43 0.54 0.58 0.60 0.64 0.67 0.70 0.75 0.75 0.74 0.83 0.89 0.95 0.99 0.97 0.95 0.98 0.91 0.84 0.85 0.77 0.61 0.47 0.45 0.57 0.71 0.70 0.65 0.60 0.42 0.28 0.24 0.21 0.21 0.23 0.28
0.09 0.10 0.13 0.17 0.21 0.27 0.38 0.50 0.56 0.60 0.64 0.69 0.74 0.81 0.87 0.90 0.90 0.93 0.96 1.05 1.10 1.07 1.02 1.03 1.05 0.99 0.94 0.91 0.70 0.54 0.46 0.54 0.67 0.80 0.78 0.66 0.50 0.39 0.31 0.28 0.26 0.24 0.26
0.07 0.09 0.12 0.17 0.20 0.21 0.27 0.36 0.45 0.52 0.56 0.58 0.61 0.66 0.74 0.81 0.91 1.03 1.03 1.06 1.11 1.14 1.13 1.10 1.04 1.01 1.00 1.05 0.90 0.71 0.57 0.57 0.69 0.81 0.83 0.71 0.65 0.56 0.46 0.42 0.38 0.33 0.30
0.06 0.08 0.13 0.16 0.17 0.17 0.19 0.23 0.31 0.45 0.54 0.56 0.56 0.61 0.68 0.76 0.88 1.02 1.06 0.98 1.00 1.04 1.01 0.94 0.90 0.91 0.92 0.96 0.87 0.74 0.70 0.72 0.82 0.92 1.03 0.97 0.89 0.82 0.73 0.66 0.61 0.57 0.51
0.09 0.14 0.16 0.17 0.16 0.17 0.19 0.21 0.28 0.42 0.54 0.57 0.55 0.57 0.61 0.70 0.80 0.93 0.98 0.85 0.72 0.71 0.71 0.63 0.56 0.54 0.57 0.67 0.70 0.64 0.60 0.63 0.74 0.89 1.05 1.02 0.95 0.91 0.90 0.87 0.82 0.77 0.71